[[{"header":{"parameterUnit":"m.s-1","parameterCategory":1,"la1":30.2991,"la2":30.254,"lo1":-89.0895,"lo2":-89.0444,"dy":0.0017,"dx":0.0017,"nx":28,"ny":28,"refTime":"2025-07-06T09:00:00:Z","depth":0,"parameterNumber":2,"parameterNumberName":"U-component_of_WINDS"},"data":[0,0,0,0,0,0,0,0,0,0,0,0,0,0,0,0,0,0,0,0,0,0,0,0,0,0,0,0,0,0,0,0,0,0,0,0,0,0,0,0,0,0,0,0,0,0,0,0,0,0,0,0,0,0,0,0,0,0,3.1038,3.1039,0,3.1108,3.1109,3.111,3.1055,3.1053,3.1051,3.1049,3.112,3.1124,3.1128,0,0,0,0,0,0,0,0,0,0,0,0,0,3.0854,3.0857,3.1038,3.1039,3.104,3.1108,3.1109,3.111,3.1056,3.1053,3.105,3.1048,3.1118,3.1123,3.1128,0,0,0,0,0,0,0,0,0,0,0,0,0,3.093,3.0859,3.1038,3.1021,3.102,3.1108,3.1109,3.111,3.1056,3.1053,3.1049,3.1046,3.1117,3.1123,3.1129,3.1236,0,0,3.1147,3.115,0,0,0,0,0,0,0,0,3.0926,3.0937,3.1022,3.1022,3.1021,3.1069,3.107,3.1152,3.1057,3.1043,3.1049,3.1044,3.1106,3.1113,3.1133,3.124,3.1243,3.1148,3.1152,3.1154,3.1156,0,0,0,0,0,0,0,3.092,3.0933,3.1065,3.1024,3.1023,3.1009,3.1016,3.1085,3.1093,3.1044,3.104,3.1049,3.1105,3.1128,3.1135,3.1244,3.1148,3.1153,3.1157,3.1159,3.1437,3.1441,0,0,0,0,0,0,3.0917,3.0929,3.1063,3.1068,3.0964,3.1015,3.1023,3.1058,3.1092,3.1094,3.1052,3.1046,3.1119,3.1128,3.1137,3.1262,3.1154,3.116,3.1163,3.1434,3.1438,3.1442,0,0,0,0,0,0,3.0913,3.0929,3.106,3.0997,3.1013,3.1022,3.1061,3.1061,3.1083,3.1098,3.1099,3.1074,3.1116,3.1128,3.1211,3.1263,3.1163,3.1168,3.1429,3.1435,3.144,3.1514,0,0,0,0,0,0,3.0908,3.0928,3.097,3.0999,3.1017,3.1135,3.1065,3.1065,3.1094,3.1087,3.1119,3.1121,3.1115,3.1202,3.1217,3.127,3.1173,3.1424,3.1432,3.1438,3.1507,3.1522,3.1534,0,0,0,0,0,3.0902,3.0989,3.0973,3.0989,3.1069,3.1138,3.1148,3.1139,3.1099,3.114,3.1149,3.112,3.1256,3.1211,3.1227,3.1283,3.1421,3.143,3.1438,3.1501,3.1519,3.1534,0,0,0,0,0,0,3.0967,3.0993,3.0975,3.1074,3.1104,3.1129,3.118,3.1159,3.12,3.1192,3.1179,3.1187,3.1273,3.1287,3.1236,3.1387,3.1332,3.1344,3.1374,3.1391,3.1405,3.1398,3.1178,0,0,0,0,0,3.0993,3.1048,3.1067,3.1153,3.1168,3.1172,3.1202,3.1192,3.1222,3.1235,3.125,3.128,3.1328,3.1361,3.1407,3.151,3.1514,3.1556,3.1569,3.158,3.159,3.1641,3.1658,3.147,3.1469,3.1469,0,0,3.1048,3.1068,3.1103,3.1166,3.1188,3.1243,3.1183,3.1245,3.1284,3.1244,3.1322,3.1334,3.1366,3.1458,3.1499,3.1472,3.1643,3.1591,3.1599,3.1603,3.1651,3.1669,3.1685,3.1475,3.1474,3.1473,0,0,3.1174,3.1196,3.1268,3.1291,3.1325,3.1326,3.1343,3.1371,3.1377,3.1455,3.1424,3.1471,3.1557,3.158,3.1603,3.1735,3.1709,3.1751,3.1821,3.187,3.1885,3.1898,3.1942,3.1958,3.1761,3.1761,3.1761,0,3.1237,3.1319,3.1308,3.137,3.1397,3.1363,3.1434,3.1457,3.1504,3.1523,3.1492,3.1596,3.1616,3.1711,3.1742,3.1764,3.1781,3.1746,3.1884,3.1897,3.1909,3.195,3.1967,3.1766,3.1765,3.1765,3.1764,0,3.1392,3.1449,3.1503,3.1548,3.1582,3.1649,3.1646,3.1681,3.1668,3.1673,3.1751,3.1773,3.1821,3.1844,3.1832,3.1936,3.1917,3.1886,3.183,3.1932,3.197,3.1986,3.1772,3.1771,3.1769,3.1768,0,0,3.1562,3.1598,3.1618,3.1636,3.167,3.1713,3.1777,3.1824,3.1852,3.1886,3.1937,3.201,3.1979,3.2005,3.1996,3.2041,3.2139,3.2003,3.2003,3.2024,3.225,3.2271,3.229,3.2122,3.2125,3.2128,3.2246,0,3.1686,3.1797,3.1789,3.1893,3.1944,3.1911,3.1966,3.1992,3.1997,3.2039,3.2045,3.2095,3.2053,3.2068,3.2111,3.2118,3.2183,3.211,3.2167,3.217,3.2157,3.231,3.2334,3.2444,3.2261,3.2264,3.2266,0,3.1847,3.1884,3.1993,3.2016,3.2037,3.2087,3.2127,3.2169,3.2196,3.2197,3.2225,3.2207,3.2269,3.2214,3.2298,3.2248,3.2271,3.2278,3.2282,3.2285,3.2222,3.2314,3.2479,3.2494,3.229,3.2288,3.2286,0,3.1954,3.2032,3.2107,3.2124,3.2153,3.2188,3.2202,3.2226,3.2254,3.2289,3.2306,3.2349,3.2371,3.2404,3.2397,3.2358,3.2482,3.2426,3.2481,3.2481,3.2507,3.2505,3.2675,3.2528,3.2527,3.2527,3.2527,0,3.2093,3.216,3.2155,3.22,3.2274,3.2262,3.2335,3.2344,3.2366,3.2411,3.2386,3.2429,3.2419,3.2461,3.2457,3.2525,3.2537,3.2537,3.2534,3.2537,3.2537,3.255,3.2541,3.2531,3.253,3.253,3.2529,0,3.2225,3.2224,3.2302,3.2323,3.233,3.2383,3.2399,3.2441,3.2444,3.2501,3.2514,3.2518,3.2566,3.2563,3.2618,3.2615,3.2698,3.2688,3.2688,3.2685,3.2739,3.2732,3.2921,3.2943,3.2785,3.2786,3.2787,0,3.2311,3.2362,3.2387,3.2416,3.2431,3.2478,3.2505,3.2495,3.2525,3.2558,3.2595,3.2641,3.2676,3.2754,3.2761,3.2802,3.2791,3.2854,3.2797,3.2797,3.2788,3.2783,3.2787,3.2865,3.2867,3.2868,3.2869,0,3.2464,3.2461,3.2501,3.2541,3.2574,3.2605,3.2633,3.2658,3.2651,3.2685,3.2733,3.2761,3.2815,3.286,3.2898,3.2911,3.2888,3.2888,3.2902,3.2904,3.29,3.2899,3.2715,3.2883,3.2881,3.288,3.288,3.2879,3.2574,3.2616,3.2639,3.2684,3.2704,3.273,3.2769,3.2776,3.2816,3.2859,3.2851,3.2905,3.2928,3.2977,3.2993,3.3034,3.3011,3.3033,3.3038,3.3042,3.3046,3.2896,3.3041,3.3041,3.3041,3.304,3.304,0,3.2722,3.2735,3.2776,3.2816,3.285,3.2826,3.2856,3.2886,3.2933,3.2957,3.2992,3.3045,3.3088,3.3098,3.3138,3.3168,3.3158,3.3179,3.3175,3.3177,3.3066,3.3048,3.3185,3.3185,3.3185,3.3185,3.3185,3.3185,3.2803,3.2871,3.287,3.2947,3.2959,3.3011,3.3029,3.3052,3.307,3.3131,3.3166,3.3172,3.319,3.323,3.3267,3.3269,3.3283,3.3307,3.3304,3.32,3.3185,3.3171,3.3154,3.3311,3.3311,3.3411,3.3412,3.3413]},{"header":{"parameterUnit":"m.s-1","parameterCategory":1,"la1":30.2991,"la2":30.254,"lo1":-89.0895,"lo2":-89.0444,"dy":0.0017,"dx":0.0017,"nx":28,"ny":28,"refTime":"2025-07-06T09:00:00:Z","depth":0,"parameterNumber":3,"parameterNumberName":"V-component_of_WINDS"},"data":[0,0,0,0,0,0,0,0,0,0,0,0,0,0,0,0,0,0,0,0,0,0,0,0,0,0,0,0,0,0,0,0,0,0,0,0,0,0,0,0,0,0,0,0,0,0,0,0,0,0,0,0,0,0,0,0,0,0,1.8153,1.8153,0,1.8147,1.8147,1.8147,1.8088,1.8087,1.8085,1.8084,1.8078,1.808,1.8081,0,0,0,0,0,0,0,0,0,0,0,0,0,1.8111,1.8112,1.8153,1.8153,1.8153,1.8147,1.8147,1.8147,1.8088,1.8087,1.8085,1.8083,1.8078,1.8079,1.8081,0,0,0,0,0,0,0,0,0,0,0,0,0,1.812,1.8113,1.8153,1.8123,1.812,1.8147,1.8147,1.8147,1.8089,1.8086,1.8084,1.8082,1.8077,1.8079,1.8081,1.8137,0,0,1.8087,1.8088,0,0,0,0,0,0,0,0,1.812,1.8122,1.8127,1.8125,1.8122,1.8116,1.8131,1.8144,1.8089,1.8101,1.8084,1.8081,1.8093,1.8093,1.8097,1.8137,1.8137,1.8087,1.8088,1.8089,1.8089,0,0,0,0,0,0,0,1.8119,1.8121,1.8151,1.8128,1.8124,1.8109,1.8108,1.8133,1.8109,1.81,1.8095,1.8095,1.8091,1.8095,1.8097,1.8137,1.8087,1.8089,1.809,1.809,1.8218,1.8221,0,0,0,0,0,0,1.8123,1.8121,1.8151,1.8151,1.8115,1.8112,1.811,1.812,1.8109,1.8105,1.8097,1.8093,1.8093,1.8094,1.8096,1.8159,1.8089,1.8091,1.8092,1.8216,1.8219,1.8221,0,0,0,0,0,0,1.8122,1.8126,1.8151,1.8135,1.8137,1.8115,1.8126,1.8121,1.8126,1.8107,1.8103,1.8106,1.8092,1.8093,1.8127,1.8158,1.8091,1.8093,1.8214,1.8217,1.822,1.8286,0,0,0,0,0,0,1.8121,1.8126,1.8148,1.8136,1.8138,1.8183,1.8128,1.8123,1.8129,1.8123,1.8114,1.8111,1.809,1.8124,1.8128,1.8159,1.8095,1.8211,1.8215,1.8219,1.8281,1.8291,1.83,0,0,0,0,0,1.812,1.8167,1.8149,1.8153,1.8165,1.8185,1.8186,1.8161,1.8132,1.8153,1.814,1.8111,1.8154,1.8128,1.8132,1.8164,1.8209,1.8214,1.8219,1.8276,1.8289,1.83,0,0,0,0,0,0,1.8185,1.8165,1.8145,1.819,1.8189,1.8175,1.8201,1.8175,1.8183,1.8177,1.8146,1.8144,1.8181,1.8176,1.8148,1.8216,1.8176,1.8182,1.8218,1.823,1.8239,1.8239,1.8096,0,0,0,0,0,1.8204,1.8222,1.8204,1.8246,1.8246,1.8223,1.8231,1.8212,1.821,1.8209,1.8199,1.8198,1.8211,1.822,1.8231,1.828,1.8276,1.8303,1.8313,1.8321,1.8326,1.8349,1.836,1.8238,1.8238,1.8238,0,0,1.8245,1.8236,1.825,1.8258,1.8255,1.8274,1.8224,1.8246,1.8259,1.8213,1.8243,1.8235,1.8232,1.8272,1.8289,1.8269,1.8359,1.8327,1.8334,1.8335,1.8355,1.8367,1.8377,1.8242,1.8241,1.8241,0,0,1.8327,1.8324,1.8356,1.8354,1.835,1.8334,1.8342,1.833,1.8323,1.8353,1.8317,1.8332,1.8356,1.8353,1.8356,1.8435,1.8407,1.8439,1.8489,1.8511,1.8521,1.8529,1.8555,1.8565,1.8445,1.8445,1.8445,0,1.8379,1.8405,1.8377,1.84,1.8404,1.8362,1.8394,1.8393,1.8393,1.8396,1.8373,1.8399,1.8394,1.8432,1.8451,1.8455,1.8461,1.844,1.8522,1.853,1.8537,1.8561,1.8572,1.8449,1.8448,1.8448,1.8448,0,1.8467,1.8485,1.8512,1.8512,1.8518,1.8547,1.8521,1.8532,1.8511,1.8497,1.8526,1.8518,1.8525,1.8533,1.8514,1.8568,1.8554,1.8527,1.8486,1.8553,1.8575,1.8584,1.8454,1.8453,1.8452,1.8451,0,0,1.8592,1.8573,1.8583,1.8581,1.8572,1.8585,1.861,1.8617,1.8625,1.8626,1.8645,1.8664,1.8638,1.864,1.862,1.864,1.87,1.8609,1.8609,1.8625,1.8756,1.8775,1.8787,1.8681,1.8683,1.8685,1.8755,0,1.867,1.8711,1.8685,1.873,1.8746,1.8705,1.8726,1.8722,1.8709,1.872,1.8706,1.8719,1.8685,1.8685,1.8703,1.8689,1.8725,1.8683,1.8698,1.8698,1.8699,1.8799,1.882,1.8888,1.8764,1.8765,1.8767,0,1.8767,1.877,1.8817,1.8801,1.8807,1.8827,1.8829,1.884,1.8834,1.8823,1.8825,1.8799,1.8821,1.878,1.8809,1.8781,1.8785,1.8779,1.8781,1.878,1.8736,1.88,1.8909,1.8918,1.878,1.8779,1.8778,0,1.8851,1.8867,1.8896,1.8896,1.8879,1.8894,1.8888,1.8879,1.8884,1.8886,1.8888,1.8893,1.8895,1.8899,1.8874,1.8847,1.8905,1.8864,1.8896,1.8896,1.8909,1.8909,1.9019,1.8914,1.8914,1.8914,1.8914,0,1.894,1.897,1.8933,1.8951,1.8982,1.8951,1.8982,1.8972,1.8964,1.8978,1.8943,1.8957,1.8924,1.8935,1.8915,1.8941,1.8943,1.8933,1.8928,1.8936,1.8937,1.8938,1.8932,1.8917,1.8916,1.8916,1.8915,0,1.9039,1.9016,1.9044,1.9026,1.9021,1.9045,1.9029,1.9044,1.9028,1.9046,1.9048,1.9024,1.9033,1.9009,1.9016,1.9003,1.9039,1.9026,1.904,1.9036,1.9069,1.9065,1.9183,1.9195,1.9084,1.9085,1.9086,0,1.9097,1.9118,1.9101,1.9108,1.9103,1.9115,1.9118,1.9088,1.9093,1.9086,1.9102,1.9109,1.9112,1.913,1.9112,1.9116,1.9103,1.9143,1.9103,1.911,1.9101,1.9099,1.91,1.9151,1.9153,1.9154,1.9155,0,1.9202,1.9188,1.9195,1.9197,1.9202,1.9202,1.92,1.9208,1.9175,1.9182,1.9191,1.9194,1.92,1.9206,1.9206,1.9199,1.9171,1.9168,1.9175,1.9183,1.9189,1.9184,1.9061,1.9165,1.9164,1.9163,1.9163,1.9162,1.928,1.9296,1.9286,1.9294,1.9288,1.9287,1.9299,1.9284,1.9291,1.9292,1.9274,1.9286,1.9277,1.9274,1.9269,1.9278,1.9259,1.927,1.9273,1.9276,1.928,1.9189,1.9278,1.9278,1.9277,1.9277,1.9277,0,1.9381,1.9372,1.9379,1.9376,1.9382,1.9355,1.935,1.9357,1.9368,1.9362,1.9365,1.9374,1.938,1.9362,1.9364,1.9374,1.9361,1.9376,1.9374,1.9372,1.9298,1.929,1.9386,1.9386,1.9386,1.9386,1.9386,1.9386,1.9434,1.9459,1.9444,1.9465,1.9455,1.9467,1.9466,1.9464,1.9458,1.9469,1.9473,1.9461,1.945,1.945,1.9454,1.9448,1.945,1.9468,1.9458,1.9389,1.9378,1.9368,1.9361,1.9469,1.947,1.9532,1.9532,1.9533]}]]